ONEWEB-0313 (49099 NORAD) Tracking and Keplerian Element Data

This shows tracking and keplerian element data for the satellite.

Feedback or suggestion? Click here.




ElementValue
Catalog49099
NameONEWEB-0313
Epoch Orbit561
Epoch Day262.16668981
Epoch Year2021
RAAN356.4327
Inclination87.4266
Eccentricity0.0020187
Argument of Perigee186.7572
Mean Anonmoly68.7142
Mean Motion15.16241796
Decay Rate-0.0089444
L11 49099U 21075AA 21262.16668981 -.00894440 00000-0 -49578-1 0 9999
L22 49099 87.4266 356.4327 0020187 186.7572 68.7142 15.16241796 5612

Live tracking and technical data element details for ONEWEB-0313 (NORAD 49099). ONEWEB-0313 can be tracked NOW for your location showing map with azimuth and elevation plus other details from your city location.

Track the satellite on the map from your city or location and see movement details for azimuth, elevation, latitude, longitude, range, height, and movement on the map or in text.







IsCatalogInMostPopularTable: catalog: 49099, numindb: 5
Update: records affected: 1



GetName: 49099 ONEWEB-0313

Hit Count: updated at: Fri, 24 Sep 2021 19:18:58 GMT